Hourly Data Report for November 26, 2018

CARBERRY CS
MANITOBA
Current Station Operator: ECCC - MSC

49°54'20.900" N
99°21'26.800" W
383.50 m
5010547
71170
WZE

Download Data

Hourly Data (November 2018)
Hourly Data Report for November 26, 2018
TIME
LST
Temp Definition
°C
Dew Point Definition
°C
Rel Hum Definition
%
Precip. Amount Definition
mm

Wind Dir Definition
10's deg

Wind Spd Definition
km/h
Visibility Definition
km
Stn Press Definition
kPa
Hmdx Definition


Wind Chill Definition


Weather Definition


00:00 -20.6 -22.6 84 0.0 29 12   98.09   -29 LegendNANA
01:00 -22.4 -24.8 80 0.0 29 7   98.10   -28 LegendNANA
02:00 -22.6 -25.0 81 0.0 29 11   98.11   -31 LegendNANA
03:00 -23.1 -25.6 80 0.0 29 7   98.11   -29 LegendNANA
04:00 -22.8 -25.3 80 0.0 29 7   98.08   -29 LegendNANA
05:00 -24.0 -26.7 78 0.0 26 10   98.09   -32 LegendNANA
06:00 -23.1 -25.5 80 0.0 26 11   98.09   -31 LegendNANA
07:00 -23.3 -26.0 79 0.0 27 7   98.07   -29 LegendNANA
08:00 -24.1 -26.8 78 0.0 28 7   98.05   -30 LegendNANA
09:00 -21.7 -24.6 77 0.0 26 10   98.11   -29 LegendNANA
10:00 -19.6 -22.6 77 0.0 28 4   98.09   -23 LegendNANA
11:00 -16.9 -21.3 69 0.0 29 12   98.07   -24 LegendNANA
12:00 -14.7 -19.8 65 0.0 31 8   98.06   -20 LegendNANA
13:00 -13.8 -19.1 64 0.0 32 8   98.00   -19 LegendNANA
14:00 -12.6 -18.4 62 0.0 33 6   97.92   -17 LegendNANA
15:00 -12.4 -18.2 62 0.0 30 7   97.89   -17 LegendNANA
16:00 -13.5 -18.8 65 0.0 26 13   97.93   -20 LegendNANA
17:00 -15.4 -19.0 74 0.0 27 5   97.92   -19 LegendNANA
18:00 -17.2 -20.0 79 0.0 26 4   97.88   -20 LegendNANA
19:00 -19.6 -21.8 83 0.0 25 1   97.84   -20 LegendNANA
20:00 -20.7 -23.1 81 0.0   0   97.84     LegendNANA
21:00 -21.9 -24.0 83 0.0 0 1   97.75   -23 LegendNANA
22:00 -24.2 -26.9 78 0.0 25 2   97.77   -26 LegendNANA
23:00 -23.9 -26.7 78 0.0 29 7   97.77   -30 LegendNANA

Notes on Data Quality.

Legend

  • E = Estimated
  • M = Missing
  • NA = Not Available*
  • [empty] = Indicates an unobserved value
Date modified: